| time (UTC) | temp C | wind direction | speed KPH | gust KPH | rain 1hr cm | rain 24hr cm | rain mn cm | humidity % | barometer mb |
| 20260507000518 | 14 | 0.0 | 0.0 | 0.00 | 0.00 | 0.00 | 68 | 1016.3 | |
| 20260506235519 | 15 | 0.0 | 0.0 | 0.00 | 0.00 | 0.00 | 69 | 1016.5 | |
| 20260506234518 | 15 | 0.0 | 0.0 | 0.00 | 0.00 | 0.00 | 68 | 1016.5 | |
| 20260506233519 | 15 | 0.0 | 0.0 | 0.00 | 0.00 | 0.00 | 72 | 1016.6 | |
| 20260506232518 | 15 | 19 | 0.0 | 1.6 | 0.00 | 0.00 | 0.00 | 73 | 1016.6 |
| 20260506231519 | 15 | 0.0 | 0.0 | 0.00 | 0.00 | 0.00 | 75 | 1016.7 | |
| 20260506230518 | 15 | 0.0 | 1.6 | 0.00 | 0.00 | 0.00 | 75 | 1016.7 | |
| 20260506225519 | 15 | 0.0 | 0.0 | 0.00 | 0.00 | 0.00 | 76 | 1016.7 | |
| 20260506224538 | 15 | 0.0 | 0.0 | 0.00 | 0.00 | 0.00 | 77 | 1016.7 | |
| 20260506223538 | 15 | 0.0 | 0.0 | 0.00 | 0.00 | 0.00 | 77 | 1016.8 | |
| 20260506222518 | 15 | 0.0 | 0.0 | 0.00 | 0.00 | 0.00 | 77 | 1016.8 | |
| 20260506221519 | 15 | 0.0 | 0.0 | 0.00 | 0.00 | 0.00 | 78 | 1016.8 | |
| 20260506220519 | 15 | 22 | 0.0 | 3.2 | 0.00 | 0.00 | 0.00 | 77 | 1016.9 |
| 20260506215518 | 15 | 0.0 | 0.0 | 0.00 | 0.00 | 0.00 | 77 | 1016.9 | |
| 20260506214519 | 15 | 13 | 0.0 | 3.2 | 0.00 | 0.00 | 0.00 | 76 | 1016.8 |
| 20260506213518 | 15 | 0.0 | 0.0 | 0.00 | 0.00 | 0.00 | 75 | 1016.8 | |
| 20260506212518 | 15 | 0.0 | 1.6 | 0.00 | 0.00 | 0.00 | 73 | 1016.8 | |
| 20260506211518 | 15 | 339 | 1.6 | 3.2 | 0.00 | 0.00 | 0.00 | 72 | 1016.8 |
| 20260506210558 | 15 | 0.0 | 0.0 | 0.00 | 0.00 | 0.00 | 72 | 1016.8 | |
| 20260506205518 | 15 | 0.0 | 0.0 | 0.00 | 0.00 | 0.00 | 72 | 1016.8 | |
| 20260506204540 | 15 | 0.0 | 0.0 | 0.00 | 0.00 | 0.00 | 71 | 1016.8 | |
| 20260506203600 | 15 | 0.0 | 0.0 | 0.00 | 0.00 | 0.00 | 71 | 1016.7 | |
| 20260506202519 | 15 | 0.0 | 0.0 | 0.00 | 0.00 | 0.00 | 72 | 1016.7 | |
| 20260506201518 | 15 | 0.0 | 1.6 | 0.00 | 0.00 | 0.00 | 71 | 1016.8 | |
| 20260506200520 | 15 | 71 | 0.0 | 3.2 | 0.00 | 0.00 | 0.00 | 72 | 1016.8 |
| 20260506195518 | 16 | 336 | 1.6 | 4.8 | 0.00 | 0.00 | 0.00 | 70 | 1016.7 |
| 20260506194538 | 16 | 0.0 | 0.0 | 0.00 | 0.00 | 0.00 | 70 | 1016.6 | |
| 20260506193516 | 16 | 0.0 | 0.0 | 0.00 | 0.00 | 0.00 | 69 | 1016.5 | |
| 20260506192516 | 17 | 0.0 | 0.0 | 0.00 | 0.00 | 0.00 | 68 | 1016.4 | |
| 20260506191516 | 16 | 64 | 0.0 | 4.8 | 0.00 | 0.00 | 0.00 | 68 | 1016.3 |
| 20260506190516 | 16 | 83 | 0.0 | 1.6 | 0.00 | 0.00 | 0.00 | 68 | 1016.2 |
| 20260506185537 | 17 | 15 | 0.0 | 1.6 | 0.00 | 0.00 | 0.00 | 66 | 1016.1 |
| 20260506184516 | 17 | 245 | 0.0 | 4.8 | 0.00 | 0.00 | 0.00 | 66 | 1016.0 |
| 20260506183516 | 17 | 318 | 3.2 | 6.4 | 0.00 | 0.00 | 0.00 | 62 | 1015.9 |
| 20260506182516 | 17 | 20 | 1.6 | 4.8 | 0.00 | 0.00 | 0.00 | 60 | 1015.7 |
| 20260506181516 | 18 | 294 | 3.2 | 6.4 | 0.00 | 0.00 | 0.00 | 60 | 1015.5 |
| 20260506180516 | 18 | 311 | 0.0 | 4.8 | 0.00 | 0.00 | 0.00 | 52 | 1015.4 |
| 20260506175516 | 18 | 0.0 | 0.0 | 0.00 | 0.00 | 0.00 | 51 | 1015.3 | |
| 20260506174556 | 18 | 0.0 | 0.0 | 0.00 | 0.00 | 0.00 | 55 | 1015.3 | |
| 20260506173517 | 18 | 0.0 | 0.0 | 0.00 | 0.00 | 0.00 | 56 | 1015.3 | |
| 20260506172516 | 18 | 109 | 0.0 | 1.6 | 0.00 | 0.00 | 0.00 | 56 | 1015.2 |
| 20260506171557 | 19 | 47 | 0.0 | 1.6 | 0.00 | 0.00 | 0.00 | 53 | 1015.1 |
| 20260506170516 | 20 | 85 | 0.0 | 1.6 | 0.00 | 0.00 | 0.00 | 52 | 1015.1 |
| 20260506165517 | 20 | 334 | 1.6 | 9.7 | 0.00 | 0.00 | 0.00 | 52 | 1015.0 |
| 20260506164516 | 20 | 344 | 9.7 | 22.5 | 0.00 | 0.00 | 0.00 | 55 | 1015.0 |
| 20260506163536 | 20 | 350 | 14.5 | 19.3 | 0.00 | 0.00 | 0.00 | 55 | 1015.0 |
| 20260506162516 | 20 | 340 | 11.3 | 17.7 | 0.00 | 0.00 | 0.00 | 56 | 1015.0 |
| 20260506161516 | 21 | 304 | 1.6 | 8.0 | 0.00 | 0.00 | 0.00 | 54 | 1015.0 |
| 20260506160517 | 21 | 282 | 1.6 | 6.4 | 0.00 | 0.00 | 0.00 | 53 | 1015.0 |
| 20260506155516 | 21 | 269 | 3.2 | 9.7 | 0.00 | 0.00 | 0.00 | 55 | 1015.1 |
| 20260506154516 | 21 | 262 | 6.4 | 16.1 | 0.00 | 0.00 | 0.00 | 55 | 1015.1 |
| 20260506153516 | 21 | 255 | 3.2 | 12.9 | 0.00 | 0.00 | 0.00 | 54 | 1015.1 |
| 20260506152516 | 21 | 254 | 4.8 | 14.5 | 0.00 | 0.00 | 0.00 | 55 | 1015.1 |
| 20260506151516 | 21 | 258 | 3.2 | 14.5 | 0.00 | 0.00 | 0.00 | 55 | 1015.2 |
| 20260506150516 | 22 | 276 | 4.8 | 14.5 | 0.00 | 0.00 | 0.00 | 52 | 1015.2 |
| 20260506145536 | 21 | 223 | 1.6 | 12.9 | 0.00 | 0.00 | 0.00 | 55 | 1015.1 |
| 20260506144536 | 21 | 274 | 4.8 | 9.7 | 0.00 | 0.00 | 0.00 | 55 | 1015.2 |
| 20260506143517 | 21 | 238 | 3.2 | 12.9 | 0.00 | 0.00 | 0.00 | 56 | 1015.3 |
| 20260506142516 | 21 | 299 | 6.4 | 16.1 | 0.00 | 0.00 | 0.00 | 52 | 1015.3 |
| 20260506141516 | 21 | 296 | 8.0 | 19.3 | 0.00 | 0.00 | 0.00 | 55 | 1015.3 |
| 20260506140516 | 21 | 296 | 6.4 | 16.1 | 0.00 | 0.00 | 0.00 | 54 | 1015.2 |
| 20260506135516 | 21 | 281 | 8.0 | 19.3 | 0.00 | 0.00 | 0.00 | 51 | 1015.2 |
| 20260506134516 | 21 | 280 | 6.4 | 14.5 | 0.00 | 0.00 | 0.00 | 59 | 1015.2 |
| 20260506133538 | 21 | 285 | 6.4 | 16.1 | 0.00 | 0.00 | 0.00 | 61 | 1015.2 |
| 20260506132516 | 21 | 310 | 6.4 | 12.9 | 0.00 | 0.00 | 0.00 | 62 | 1015.3 |
| 20260506131516 | 20 | 281 | 6.4 | 17.7 | 0.00 | 0.00 | 0.00 | 65 | 1015.4 |
| 20260506130557 | 20 | 266 | 11.3 | 17.7 | 0.00 | 0.00 | 0.00 | 67 | 1015.4 |
| 20260506125536 | 20 | 264 | 12.9 | 19.3 | 0.00 | 0.00 | 0.00 | 66 | 1015.5 |
| 20260506124516 | 20 | 290 | 9.7 | 17.7 | 0.00 | 0.00 | 0.00 | 60 | 1015.5 |
| 20260506123516 | 20 | 272 | 11.3 | 19.3 | 0.00 | 0.00 | 0.00 | 57 | 1015.6 |
| 20260506122516 | 20 | 286 | 11.3 | 19.3 | 0.00 | 0.00 | 0.00 | 53 | 1015.7 |
| 20260506121516 | 20 | 288 | 8.0 | 16.1 | 0.00 | 0.00 | 0.00 | 51 | 1015.8 |
| 20260506120517 | 20 | 276 | 12.9 | 20.9 | 0.00 | 0.00 | 0.00 | 52 | 1015.8 |
| 20260506115516 | 21 | 282 | 8.0 | 16.1 | 0.00 | 0.00 | 0.00 | 50 | 1015.9 |
| 20260506114517 | 21 | 256 | 8.0 | 14.5 | 0.00 | 0.00 | 0.00 | 49 | 1015.9 |
| 20260506113516 | 21 | 270 | 8.0 | 16.1 | 0.00 | 0.00 | 0.00 | 46 | 1016.0 |
| 20260506112518 | 21 | 293 | 6.4 | 14.5 | 0.00 | 0.00 | 0.00 | 46 | 1016.0 |
| 20260506111537 | 21 | 254 | 8.0 | 14.5 | 0.00 | 0.00 | 0.00 | 47 | 1016.0 |
| 20260506110517 | 21 | 261 | 8.0 | 14.5 | 0.00 | 0.00 | 0.00 | 47 | 1016.0 |
| 20260506105517 | 21 | 244 | 4.8 | 12.9 | 0.00 | 0.00 | 0.00 | 50 | 1015.9 |
| 20260506104517 | 21 | 266 | 6.4 | 14.5 | 0.00 | 0.00 | 0.00 | 49 | 1015.9 |
| 20260506103517 | 20 | 265 | 9.7 | 16.1 | 0.00 | 0.00 | 0.00 | 48 | 1016.0 |
| 20260506102517 | 20 | 263 | 11.3 | 16.1 | 0.00 | 0.00 | 0.00 | 48 | 1016.1 |
| 20260506101517 | 20 | 269 | 11.3 | 16.1 | 0.00 | 0.00 | 0.00 | 49 | 1016.1 |
| 20260506100517 | 20 | 263 | 9.7 | 20.9 | 0.00 | 0.00 | 0.00 | 50 | 1016.2 |
| 20260506095517 | 21 | 266 | 11.3 | 17.7 | 0.00 | 0.00 | 0.00 | 49 | 1016.2 |
| 20260506094537 | 21 | 267 | 11.3 | 16.1 | 0.00 | 0.00 | 0.00 | 48 | 1016.3 |
| 20260506093517 | 21 | 236 | 9.7 | 16.1 | 0.00 | 0.00 | 0.00 | 52 | 1016.3 |
| 20260506092517 | 21 | 256 | 8.0 | 12.9 | 0.00 | 0.00 | 0.00 | 48 | 1016.4 |
| 20260506091517 | 21 | 248 | 8.0 | 14.5 | 0.00 | 0.00 | 0.00 | 49 | 1016.4 |
| 20260506090517 | 20 | 238 | 6.4 | 14.5 | 0.00 | 0.00 | 0.00 | 49 | 1016.4 |
| 20260506085517 | 20 | 237 | 6.4 | 11.3 | 0.00 | 0.00 | 0.00 | 48 | 1016.3 |
| 20260506084517 | 20 | 233 | 4.8 | 8.0 | 0.00 | 0.00 | 0.00 | 52 | 1016.3 |
| 20260506083517 | 20 | 266 | 6.4 | 9.7 | 0.00 | 0.00 | 0.00 | 54 | 1016.3 |
| 20260506082517 | 20 | 216 | 3.2 | 9.7 | 0.00 | 0.00 | 0.00 | 56 | 1016.3 |
| 20260506081517 | 19 | 245 | 3.2 | 9.7 | 0.00 | 0.00 | 0.00 | 56 | 1016.3 |
| 20260506080517 | 18 | 224 | 3.2 | 8.0 | 0.00 | 0.00 | 0.00 | 57 | 1016.3 |
| 20260506072517 | 18 | 244 | 3.2 | 8.0 | 0.00 | 0.00 | 0.00 | 66 | 1016.1 |
| 20260506071517 | 18 | 216 | 3.2 | 8.0 | 0.00 | 0.00 | 0.00 | 67 | 1016.1 |
| 20260506070517 | 18 | 233 | 4.8 | 9.7 | 0.00 | 0.00 | 0.00 | 69 | 1016.1 |
| 20260506061517 | 17 | 295 | 1.6 | 6.4 | 0.00 | 0.00 | 0.00 | 65 | 1015.9 |
| 20260506060538 | 17 | 0.0 | 0.0 | 0.00 | 0.00 | 0.00 | 61 | 1015.8 | |
| 20260506050517 | 15 | 0.0 | 0.0 | 0.00 | 0.00 | 0.00 | 69 | 1016.0 | |
| 20260506044517 | 14 | 0.0 | 0.0 | 0.00 | 0.00 | 0.00 | 70 | 1015.8 | |
| 20260506043518 | 13 | 0.0 | 0.0 | 0.00 | 0.00 | 0.00 | 71 | 1015.8 | |
| 20260506042517 | 12 | 0.0 | 0.0 | 0.00 | 0.00 | 0.00 | 72 | 1015.7 | |
| 20260506041537 | 12 | 0.0 | 0.0 | 0.00 | 0.00 | 0.00 | 69 | 1015.6 | |
| 20260506040537 | 12 | 0.0 | 0.0 | 0.00 | 0.00 | 0.00 | 71 | 1015.6 | |
| 20260506035517 | 12 | 0.0 | 0.0 | 0.00 | 0.00 | 0.00 | 71 | 1015.5 | |
| 20260506034537 | 12 | 0.0 | 0.0 | 0.00 | 0.00 | 0.00 | 71 | 1015.4 | |
| 20260506033517 | 12 | 0.0 | 0.0 | 0.00 | 0.00 | 0.00 | 73 | 1015.4 | |
| 20260506032517 | 13 | 0.0 | 0.0 | 0.00 | 0.00 | 0.00 | 71 | 1015.3 | |
| 20260506031537 | 13 | 0.0 | 0.0 | 0.00 | 0.00 | 0.00 | 69 | 1015.2 | |
| 20260506030517 | 12 | 0.0 | 0.0 | 0.00 | 0.00 | 0.00 | 67 | 1015.0 | |
| 20260506025517 | 12 | 0.0 | 0.0 | 0.00 | 0.00 | 0.00 | 68 | 1014.9 | |
| 20260506024518 | 12 | 0.0 | 0.0 | 0.00 | 0.00 | 0.00 | 68 | 1014.9 | |
| 20260506023517 | 12 | 0.0 | 0.0 | 0.00 | 0.00 | 0.00 | 65 | 1015.0 | |
| 20260506022518 | 12 | 0.0 | 0.0 | 0.00 | 0.00 | 0.00 | 67 | 1015.0 | |
| 20260506021517 | 12 | 0.0 | 0.0 | 0.00 | 0.00 | 0.00 | 66 | 1014.8 | |
| 20260506020518 | 13 | 0.0 | 0.0 | 0.00 | 0.00 | 0.00 | 64 | 1014.7 | |
| 20260506015517 | 12 | 0.0 | 0.0 | 0.00 | 0.00 | 0.00 | 65 | 1014.8 | |
| 20260506014517 | 13 | 0.0 | 0.0 | 0.00 | 0.00 | 0.00 | 64 | 1014.7 | |
| 20260506013518 | 13 | 0.0 | 0.0 | 0.00 | 0.00 | 0.00 | 64 | 1014.7 | |
| 20260506012537 | 13 | 0.0 | 0.0 | 0.00 | 0.00 | 0.00 | 63 | 1014.6 | |
| 20260506011537 | 13 | 0.0 | 0.0 | 0.00 | 0.00 | 0.00 | 65 | 1014.6 | |
| 20260506010538 | 13 | 0.0 | 0.0 | 0.00 | 0.00 | 0.00 | 64 | 1014.7 | |
| 20260506005517 | 13 | 0.0 | 0.0 | 0.00 | 0.00 | 0.00 | 68 | 1014.7 | |
| 20260506004517 | 13 | 0.0 | 0.0 | 0.00 | 0.00 | 0.00 | 70 | 1014.7 | |
| 20260506003517 | 13 | 0.0 | 0.0 | 0.00 | 0.00 | 0.00 | 76 | 1014.7 | |
| 20260506002517 | 14 | 0.0 | 0.0 | 0.00 | 0.00 | 0.00 | 77 | 1014.7 | |
| 20260506001518 | 13 | 0.0 | 0.0 | 0.00 | 0.00 | 0.00 | 76 | 1014.6 |